Regional Weather Roundup
Issued by NWS

Home | Current Version | Previous Version | Graphics & Text | Print | Product List | Glossary On
Versions: 1 2 3 4 5 6 7 8 9 10 11 12 13 14 15 16 17 18 19 20 21 22 23 24 25 26 27 28 29 30 31 32 33 34 35 36 37 38 39 40 41 42 43 44 45 46 47 48 49 50
000
ASUS43 KIND 160409
RWRIN

WEATHER ROUNDUP FOR INDIANA
NATIONAL WEATHER SERVICE INDIANAPOLIS IN
1100 PM EST FRI DEC 15 2017

NOTE: "FAIR" INDICATES FEW OR NO CLOUDS BELOW 12,000 FEET WITH NO
SIGNIFICANT WEATHER AND/OR OBSTRUCTIONS TO VISIBILITY.

* - STATION DOES NOT REPORT WEATHER SUCH AS PRECIPITATION OR FOG.

+ - STATION NOT QUALITY CONTROLLED BY THE NATIONAL WEATHER SERVICE.
    USE DATA WITH CAUTION...ESPECIALLY DEWPOINT AND RELATIVE
    HUMIDITY OBSERVATIONS.

INZ001>003-010>013-019-020-160500-
NORTHWEST INDIANA

CITY           SKY/WX    TMP DP  RH WIND       PRES   REMARKS
GARY /AIRPORT/ CLOUDY   N/A N/A N/A SW17      29.92F
KNOX *+        CLOUDY    32  23  69 SW9       29.94F WCI  24
LA PORTE +     CLOUDY    32  23  69 SW9       29.93F WCI  24
MICHIGAN CITY+ CLOUDY    32  23  69 SW8       29.92F WCI  25
MONTICELLO +   CLOUDY    33  19  57 SW14      29.97F WCI  23
RENSSELAER +   CLOUDY    36  16  44 SW17      29.96F WCI  25
VALPARAISO     CLOUDY    35  22  58 SW14      29.93F WCI  26

$$

LMZ046-743>745-160500-
SOUTHERN LAKE MICHIGAN

STATION/POSITION TIME  TEMP    WIND        PRES    WAVE
                       AIR SEA DIR/SP/G            HT
                 (UTC) (F)     (DEG/KT/KT) (MB)    (FT)
BURNS HARBOR     0340   35     220/ 13/ 16 1013.5F
MICHIGAN CITY    0340   34     200/ 16/ 18   N/A

$$

INZ004-005-014>016-021>024-160500-
NORTH CENTRAL INDIANA

CITY           SKY/WX    TMP DP  RH WIND       PRES   REMARKS
GOSHEN         CLOUDY    31  21  66 SW13      29.93S WCI  21
LOGANSPORT +   CLOUDY    32  21  64 SW13      29.99S WCI  22
PERU/GRISSOM   CLOUDY    32  21  63 SW14      29.97S WCI  22
ROCHESTER +    CLOUDY    34  23  64 SW12G17   29.96S WCI  25
SOUTH BEND     CLOUDY    30  23  75 SW10      29.93S WCI  21
WARSAW +       FLURRIES  32  21  64 SW10G16   29.95S WCI  24

$$

INZ006>009-017-018-025>027-160500-
NORTHEAST INDIANA

CITY           SKY/WX    TMP DP  RH WIND       PRES   REMARKS
AUBURN +       FLURRIES  32  21  64 SW8G16    29.96S WCI  25
FORT WAYNE     FLURRIES  31  22  69 SW15      29.98R WCI  20
HUNTINGTON +   CLOUDY    31  19  62 SW8G16    29.97S WCI  23
KENDALLVILLE + FLURRIES  30  22  72 SW12      29.93F WCI  20

$$

INZ028-029-035-036-043>045-051>053-160500-
WEST CENTRAL INDIANA

CITY           SKY/WX    TMP DP  RH WIND       PRES   REMARKS
CRAWFORDSVL +  CLOUDY    30  22  72 MISG      30.04R
GREENCASTLE +  CLOUDY    32  23  69 SW5       30.06R WCI  27
LAFAYETTE      CLOUDY    33  22  63 SW9       30.01R WCI  25
TERRE HAUTE    CLEAR     31  22  69 SW6       30.07R WCI  25

$$

INZ030>032-037>040-046>048-054>057-064-065-160500-
CENTRAL INDIANA

CITY           SKY/WX    TMP DP  RH WIND       PRES   REMARKS
FRANKFORT +    CLOUDY    35  23  63 SW13G20   30.02S WCI  26
INDIANAPOLIS   CLOUDY    32  23  69 SW9       30.05R WCI  24
-EAGLE CREEK   CLOUDY    33  22  63 VRB7      30.04R WCI  27
KOKOMO +       CLOUDY    32  21  64 SW16      30.00S WCI  21
MARION +       CLOUDY    31  21  65 SW16      30.01R WCI  20
MT COMFORT *+  CLOUDY    30  27  86 SW9       30.04S WCI  22
SHELBYVILLE    CLOUDY    31  23  72 S9        30.06R WCI  23
ZIONSVILLE +   CLOUDY    31  22  68 SW12      30.03R WCI  22

$$

INZ033-034-041-042-049-050-058-059-160500-
EAST CENTRAL INDIANA

CITY           SKY/WX    TMP DP  RH WIND       PRES   REMARKS
MUNCIE         CLOUDY    32  20  61 SW9G20    30.01S WCI  24
RICHMOND +     CLOUDY    30  23  74 SW10      30.05R WCI  21

$$

INZ060-061-067>069-081>083-085>088-160500-
SOUTHWEST INDIANA

CITY           SKY/WX    TMP DP  RH WIND       PRES   REMARKS
EVANSVILLE     MOCLDY    36  26  67 S5        30.13S WCI  32
HUNTINGBURG +  CLOUDY    36  26  67 S7        30.13R WCI  30
WASHINGTON +   CLEAR     32  24  72 S9        30.10S WCI  24

$$

INZ062-063-066-070>080-084-089>092-160500-
SOUTH CENTRAL AND SOUTHEAST INDIANA

CITY           SKY/WX    TMP DP  RH WIND       PRES   REMARKS
BEDFORD +      CLEAR     28  23  80 S5        30.09R WCI  23
BLOOMINGTON    MOCLDY    31  23  72 SW9       30.07R WCI  23
MADISON *+     CLOUDY    32  23  69 SW6       30.12R WCI  26
NORTH VERNON + CLOUDY    30  23  74 S5        30.10R WCI  25
SEYMOUR +      CLOUDY    30  23  74 S6        30.10R WCI  24

$$





USA.gov is the U.S. government's official web portal to all federal, state and local government web resources and services.